Hourly Weather Roundup
Issued by NWS Central Illinois

Home | Current Version | Previous Version | Text Only | Print | Product List | Glossary On
Versions: 1 2 3 4 5 6 7 8 9 10 11 12 13 14 15 16 17 18 19 20 21 22 23 24 25 26 27 28 29 30 31 32 33 34 35 36 37 38 39 40 41 42 43 44 45 46 47 48 49 50
000
NZUS43 KILX 261510
HWRILX

Area Weather Roundup
National Weather Service Lincoln IL
1000 AM CDT WED JUL 26 2017

NOTE:  "FAIR" indicates few or no clouds below 12,000 feet, with
       no sigificant weather and/or obstructions to visibility.


CITY           SKY/WX    TMP DP  RH WIND       PRES   REMARKS
Bloomington    PTSUNNY   78  69  73 S10       30.09F HX  80
Champaign      CLOUDY    79  69  71 SE6       30.10S HX  81
Danville       MOSUNNY   77  68  74 SE3       30.09R
Decatur        PTSUNNY   80  70  71 S8        30.08S HX  83
Effingham      PTSUNNY   81  72  75 SE6       30.09S HX  85
Flora          MOSUNNY   83  74  72 SE6       30.07S HX  90
Galesburg      MOSUNNY   77  71  83 S7        30.05F
Jacksonville   MOSUNNY   80  73  77 CALM      30.05S HX  85
Lacon          MOSUNNY   78  70  77 S6        30.05F HX  80
Lawrenceville  MOSUNNY   80  71  74 SE7       30.09S HX  84
Litchfield     MOSUNNY   80  74  81 S5        30.06S HX  84
$$


CITY           SKY/WX    TMP DP  RH WIND       PRES   REMARKS
Lincoln        MOSUNNY   80  73  79 S6        30.07S HX  83
Macomb         CLOUDY    78  73  84 S5        30.07S HX  81
Mattoon        MOSUNNY   79  71  76 S9        30.08S HX  82
Mt Carmel AP   PTSUNNY   79  70  73 SE5       30.09S HX  82
Olney-Noble AP SUNNY     81  75  83 SE6       30.08S HX  86
Paris AP       SUNNY     78  70  77 SE6       30.10F HX  80
Peoria         PTSUNNY   79  72  79 S9        30.06F HX  82
Pontiac        PTSUNNY   77  71  82 SE6       30.09F
Rantoul        MOSUNNY   78  70  74 S6        30.10R HX  81
Robinson       MOSUNNY   79  70  73 SE6       30.10S HX  82
Springfield    MOSUNNY   83  74  74 SE5       30.06F HX  89
Taylorville    SUNNY     82  73  76 S3        30.06F HX  87
$$

...REGIONAL REPORTS...


CITY           SKY/WX    TMP DP  RH WIND       PRES   REMARKS
Chicago O`Hare CLOUDY    77  64  64 SW9       30.08F
Kankakee       CLOUDY    75  66  73 CALM      30.11S
Moline         CLOUDY    79  71  76 S5        30.03F HX  82
Mount Sterling CLOUDY    80  73  80 CALM      30.04S HX  84
Mount Vernon   SUNNY     85  77  77 S5        30.06F HX  95
Pittsfield     CLOUDY    81  75  82 SE5       30.06S HX  87
Quincy         CLOUDY    82  73  74 S6        30.04R HX  87
Rockford       CLOUDY    78  68  71 S9        30.07F HX  80
$$


CITY           SKY/WX    TMP DP  RH WIND       PRES   REMARKS
Burlington     CLOUDY    79  74  84 S7        30.03F HX  82
Cedar Rapids   SUNNY     75  75 100 S7        30.02S
Des Moines     LGT RAIN  76  70  82 SW5       30.00S
Kirksville     CLOUDY    81  73  76 SW5       30.04F HX  86
Ottumwa        CLOUDY    79  72  79 S8        30.02S HX  82
St Louis       MOSUNNY   89  74  60 SW7       30.05S HX  98
$$


CITY           SKY/WX    TMP DP  RH WIND       PRES   REMARKS
Terre Haute    MOSUNNY   77  67  71 SE7       30.10F
Evansville     PTSUNNY   74  70  87 SE5       30.09S
Indianapolis   PTSUNNY   75  65  70 SE8       30.12F
Lafayette      MOSUNNY   74  67  78 VRB3      30.11S
Madison        CLOUDY    74  67  78 SW8       30.04S
Milwaukee      CLOUDY    76  66  71 SW15      30.05S
$$






USA.gov is the U.S. government's official web portal to all federal, state and local government web resources and services.